Time,TemperatureF,DewpointF,PressureIn,WindDirection,WindDirectionDegrees,WindSpeedMPH,WindSpeedGustMPH,Humidity,HourlyPrecipIn,Conditions,Clouds,dailyrainin,SoftwareType,DateUTC
2013-08-31 00:12:00,69.0,66.0,29.86,SW,225,0.0,1.0,91,0.00,,,1.66,,2013-08-31 07:12:00,
2013-08-31 00:21:00,69.0,67.0,29.86,West,270,1.0,2.0,92,0.00,,,1.66,,2013-08-31 07:21:00,
2013-08-31 00:52:00,69.0,67.0,29.86,West,270,2.0,3.0,93,0.00,,,1.66,,2013-08-31 07:52:00,
2013-08-31 01:22:00,69.0,67.0,29.86,NW,315,0.0,0.0,93,0.00,,,1.66,,2013-08-31 08:22:00,
2013-08-31 01:52:00,69.0,67.0,29.83,NW,315,0.0,2.0,93,0.00,,,1.66,,2013-08-31 08:52:00,
2013-08-31 02:23:00,69.0,67.0,29.79,NW,315,0.0,2.0,94,0.00,,,1.66,,2013-08-31 09:23:00,
2013-08-31 02:53:00,68.0,66.0,29.79,WNW,293,0.0,1.0,94,0.00,,,1.66,,2013-08-31 09:53:00,
2013-08-31 03:23:00,68.0,66.0,29.79,WSW,248,2.0,2.0,94,0.00,,,1.66,,2013-08-31 10:23:00,
2013-08-31 03:53:00,68.0,66.0,29.76,NW,315,1.0,2.0,94,0.00,,,1.66,,2013-08-31 10:53:00,
2013-08-31 04:21:00,68.0,66.0,29.79,ESE,113,0.0,0.0,94,0.00,,,1.66,,2013-08-31 11:21:00,
2013-08-31 04:52:00,67.0,65.0,29.83,ESE,113,0.0,0.0,94,0.00,,,1.66,,2013-08-31 11:52:00,
2013-08-31 05:11:00,67.0,66.0,29.79,NE,45,0.0,0.0,95,0.00,,,1.66,,2013-08-31 12:11:00,
2013-08-31 05:21:00,67.0,66.0,29.79,East,90,0.0,0.0,95,0.00,,,1.66,,2013-08-31 12:21:00,
2013-08-31 05:52:00,67.0,66.0,29.79,West,270,2.0,3.0,95,0.00,,,1.66,,2013-08-31 12:52:00,
2013-08-31 06:22:00,67.0,66.0,29.79,NW,315,2.0,2.0,95,0.00,,,1.66,,2013-08-31 13:22:00,
2013-08-31 06:52:00,68.0,67.0,29.83,SSE,158,0.0,2.0,95,0.00,,,1.66,,2013-08-31 13:52:00,
2013-08-31 07:21:00,68.0,67.0,29.79,SSE,158,0.0,0.0,95,0.00,,,1.66,,2013-08-31 14:21:00,
2013-08-31 07:52:00,69.0,68.0,29.83,ENE,68,0.0,1.0,95,0.00,,,1.66,,2013-08-31 14:52:00,
2013-08-31 08:22:00,70.0,68.0,29.83,South,180,1.0,1.0,93,0.00,,,1.66,,2013-08-31 15:22:00,
2013-08-31 08:55:00,72.0,68.0,29.83,SSW,203,0.0,1.0,86,0.00,,,0.08,,2013-08-31 15:55:00,
2013-08-31 09:52:00,79.0,63.0,29.86,WSW,248,3.0,6.0,58,0.00,,,0.08,,2013-08-31 16:52:00,
2013-08-31 11:12:00,85.0,59.0,29.79,West,270,1.0,4.0,42,0.00,,,0.08,,2013-08-31 18:12:00,
2013-08-31 11:21:00,85.0,62.0,29.79,SW,225,3.0,6.0,46,0.00,,,0.08,,2013-08-31 18:21:00,
2013-08-31 11:52:00,85.0,60.0,29.79,SSW,203,3.0,6.0,43,0.00,,,0.08,,2013-08-31 18:52:00,
2013-08-31 13:52:00,72.0,60.0,29.83,WSW,248,4.0,6.0,65,0.00,,,0.08,,2013-08-31 20:52:00,
2013-08-31 14:22:00,70.0,62.0,29.79,ENE,68,1.0,4.0,77,0.00,,,0.08,,2013-08-31 21:22:00,
2013-08-31 14:54:00,69.0,63.0,29.79,ENE,68,4.0,6.0,81,0.00,,,0.08,,2013-08-31 21:54:00,
2013-08-31 15:23:00,69.0,64.0,29.79,NE,45,3.0,4.0,84,0.00,,,0.08,,2013-08-31 22:23:00,
2013-08-31 15:53:00,71.0,66.0,29.79,ENE,68,0.0,2.0,84,0.00,,,0.08,,2013-08-31 22:53:00,
2013-08-31 16:22:00,73.0,66.0,29.76,ENE,68,1.0,2.0,80,0.46,,,0.50,,2013-08-31 23:22:00,
2013-08-31 16:52:00,73.0,66.0,29.76,SE,135,4.0,6.0,80,0.46,,,0.50,,2013-08-31 23:52:00,
2013-08-31 17:11:00,72.0,66.0,29.76,South,180,2.0,3.0,81,0.46,,,0.50,,2013-09-01 00:11:00,
2013-08-31 17:21:00,72.0,66.0,29.76,WSW,248,1.0,4.0,82,0.00,,,0.50,,2013-09-01 00:21:00,
2013-08-31 17:52:00,73.0,66.0,29.73,West,270,1.0,2.0,79,0.00,,,0.50,,2013-09-01 00:52:00,
2013-08-31 18:21:00,72.0,66.0,29.69,West,270,3.0,3.0,81,0.00,,,0.46,,2013-09-01 01:21:00,
2013-08-31 18:42:00,72.0,67.0,29.73,WSW,248,2.0,2.0,83,0.00,,,0.46,,2013-09-01 01:42:00,
2013-08-31 18:52:00,71.0,66.0,29.73,WSW,248,0.0,3.0,85,0.00,,,0.46,,2013-09-01 01:52:00,
2013-08-31 19:22:00,70.0,66.0,29.76,NW,315,1.0,1.0,86,0.00,,,0.46,,2013-09-01 02:22:00,
2013-08-31 19:53:00,70.0,67.0,29.76,NW,315,4.0,4.0,89,0.00,,,0.46,,2013-09-01 02:53:00,
2013-08-31 20:22:00,69.0,66.0,29.76,SSE,158,2.0,2.0,90,0.00,,,0.46,,2013-09-01 03:22:00,
2013-08-31 20:54:00,69.0,67.0,29.79,SE,135,1.0,2.0,92,0.00,,,0.46,,2013-09-01 03:54:00,
2013-08-31 21:03:00,-999.0,-99.9,29.79,NNW,338,2.0,2.0,-999,-99.99,,,-99.99,,2013-09-01 04:03:00,
2013-08-31 21:24:00,69.0,67.0,29.76,WNW,293,2.0,2.0,93,0.00,,,0.46,,2013-09-01 04:24:00,
2013-08-31 21:54:00,69.0,68.0,29.83,South,180,0.0,0.0,95,0.00,,,0.46,,2013-09-01 04:54:00,
2013-08-31 22:22:00,69.0,67.0,29.83,NNE,23,0.0,1.0,94,0.00,,,0.46,,2013-09-01 05:22:00,
2013-08-31 22:52:00,69.0,68.0,29.79,NW,315,2.0,2.0,95,0.00,,,0.46,,2013-09-01 05:52:00,
2013-08-31 23:22:00,68.0,67.0,29.76,ESE,113,0.0,1.0,95,0.00,,,0.46,,2013-09-01 06:22:00,
2013-08-31 23:52:00,67.0,66.0,29.79,NE,45,0.0,1.0,95,0.00,,,0.46,,2013-09-01 06:52:00,